TOURFACTS.DK  
Stats and Facts from Tour de France.

Tour de France 2017 starts in 35 days
  Riders   Stages   Teams   Summits   Yearly  


 
Search by year

 After:  2016 - Stage 21:   14626 starters.
  5086 different riders.
  632 teams.
  2211 stages.
  454 restdays.
  436049.60 km.
  5622 abandonnees.


Top 3
Christopher Froome89:04:48
Romain Bardet89:08:53
Nairo Quintana89:09:09
Rafal Majka209 pt.
Thomas De Gendt130 pt.
Jarlinson Pantano ..121 pt.
Peter Sagan470 pt.
Marcel Kittel228 pt.
Michael Matthews199 pt.
Adam Yates89:09:30
Louis Meintjes89:11:46
Emanuel Buchmann89:52:28
Facts from Tour de France 2016
  |   Stages.  |   Stage winners.  |   Days in yellow  |   Average speed.  |   Route.  |   Teams.  |   All riders.  |   Rookies.  |   Withdrawls.  |  

  |   GC.  |   Polka  |   Green  |   White  |   Summits. (In tour)  |   Summits. (Points)  |   Miscellaneous.  |  

Stage 19 on 22 - 07 - 2016
         Owning:    Christopher Froome      Rafal Majka      Peter Sagan      Adam Yates  

Pick a stage:  1 2 3 4 5 6 7 8 9 10 11 12 13 14 15 16 17 18 19 20 21
  AlbertvilleSaint-Gervais Mont Blanc | Dist: 146.00 km.
Cat: 1Col de la Forclaz de MontminBELThomas De Gendt10 points 
Cat: 2Col de la Forclaz de QueigeBELThomas De Gendt5 points 
Cat: HMontée de BisannePOLRafal Majka25 points 
Cat: 1Cret Bettex - Le FayetFRARomain Bardet20 points 

Average speed for all riders in stage:  31,789 km./hr.
    Place:Name:Team:Time:Km/h:
FRARomain BardetFRAAg2r La Mondiale04:14:08  +  00:00:00=34,470 
ESPJoaquim RodriguezRUSTeam Katusha04:14:31  +  00:00:23=34,418 
ESPAlejandro ValverdeESPMovistar Team04:14:31  +  00:00:23=34,418 
4 ZAFLouis MeintjesITALampre-Merida04:14:31  +  00:00:23=34,418 
5 COLNairo QuintanaESPMovistar Team04:14:34  +  00:00:26=34,411 
6 ITAFabio AruKAZAstana Pro Team04:14:36  +  00:00:28=34,407 
7 ENGDaniel MartinBELEtixx - Quick Step04:14:36  +  00:00:28=34,407 
8 NLDWout PoelsGBRSky Procycling04:14:44  +  00:00:36=34,389 
9 KENChristopher FroomeGBRSky Procycling04:14:44  +  00:00:36=34,389 
10 AUSRichie PorteUSABMC Racing Team04:15:01  +  00:00:53=34,351 
11 ESPJon Izaguirre InsaustiESPMovistar Team04:15:01  +  00:00:53=34,351 
12 ESPMikel Landa MeanaGBRSky Procycling04:15:01  +  00:00:53=34,351 
13 ENGAdam YatesAUSORICA BikeExchange04:15:04  +  00:00:56=34,344 
14 FRAWarren BarguilDEUTeam Giant Alpecin04:15:25  +  00:01:17=34,297 
15 PRTRui CostaITALampre-Merida04:16:00  +  00:01:52=34,219 
16 COLSergio Luis HenaoGBRSky Procycling04:16:05  +  00:01:57=34,208 
17 CZERoman KreuzigerRUSTinkoff04:16:06  +  00:01:58=34,205 
18 ITADamiano CarusoUSABMC Racing Team04:17:08  +  00:03:00=34,068 
19 NLDStef ClementCHEIAM Cycling04:17:18  +  00:03:10=34,046 
20 COLJarlinson Pantano GomezCHEIAM Cycling04:18:00  +  00:03:52=33,953 
21 ITADiego RosaKAZAstana Pro Team04:18:00  +  00:03:52=33,953 
22 FRAAlexis VuillermozFRAAg2r La Mondiale04:18:00  +  00:03:52=33,953 
23 NLDBauke MollemaUSATrek – Segafredo04:18:34  +  00:04:26=33,879 
24 DEUEmanuel BuchmannDEUBora-Argon 1804:18:50  +  00:04:42=33,844 
25 ESPDaniel MorenoESPMovistar Team04:18:57  +  00:04:49=33,829 
26 FRACyril GautierFRAAg2r La Mondiale04:20:16  +  00:06:08=33,658 
27 POLRafal MajkaRUSTinkoff04:20:21  +  00:06:13=33,647 
28 WALGeraint ThomasGBRSky Procycling04:20:41  +  00:06:33=33,604 
29 ESPHaimar ZubeldiaUSATrek – Segafredo04:20:41  +  00:06:33=33,604 
30 DNKJakob FuglsangKAZAstana Pro Team04:20:41  +  00:06:33=33,604 
31 FRATony GallopinBELLotto Soudal04:21:57  +  00:07:49=33,441 
32 FRAPierre RollandUSATeam Cannondale Drapac04:22:02  +  00:07:54=33,431 
33 FRAMickaël CherelFRAAg2r La Mondiale04:22:28  +  00:08:20=33,376 
34 ESPMikel NieveGBRSky Procycling04:22:51  +  00:08:43=33,327 
35 ZAFDaryl ImpeyAUSORICA BikeExchange04:23:11  +  00:09:03=33,285 
36 ESTTanel KangertKAZAstana Pro Team04:23:15  +  00:09:07=33,276 
37 CHESébastien ReichenbachFRAFDJ04:23:41  +  00:09:33=33,222 
38 FRAAmaël MoinardUSABMC Racing Team04:25:12  +  00:11:04=33,032 
39 RUSIlnur ZakarinRUSTeam Katusha04:25:51  +  00:11:43=32,951 
40 KAZAlexey LutsenkoKAZAstana Pro Team04:25:51  +  00:11:43=32,951 
41 ITAVincenzo NibaliKAZAstana Pro Team04:25:51  +  00:11:43=32,951 
42 HRVRobert KiserlovskiRUSTinkoff04:25:51  +  00:11:43=32,951 
43 HRVKristijan DurasekITALampre-Merida04:25:51  +  00:11:43=32,951 
44 ARGEduardo SepulvedaFRAFortuneo - Vital Concept04:25:51  +  00:11:43=32,951 
45 USAPeter StetinaUSATrek – Segafredo04:26:01  +  00:11:53=32,930 
46 CHESteve MorabitoFRAFDJ04:26:42  +  00:12:34=32,846 
47 FRARomain SicardFRADirect Energie04:27:21  +  00:13:13=32,766 
48 FRAFabrice JeandesbozFRADirect Energie04:27:21  +  00:13:13=32,766 
49 ESPAlberto LosadaRUSTeam Katusha04:27:38  +  00:13:30=32,731 
50 BLRVasil KiryienkaGBRSky Procycling04:27:44  +  00:13:36=32,719 
51 DEUMarcus BurghardtUSABMC Racing Team04:28:37  +  00:14:29=32,612 
52 CHEMichael SchärUSABMC Racing Team04:28:37  +  00:14:29=32,612 
53 BELGreg Van AvermaetUSABMC Racing Team04:28:37  +  00:14:29=32,612 
54 SVNJan PolancITALampre-Merida04:28:37  +  00:14:29=32,612 
55 NZLGeorge BennettNLDTeam Lotto NL - Jumbo04:29:10  +  00:15:02=32,545 
56 BELThomas De GendtBELLotto Soudal04:30:58  +  00:16:50=32,329 
57 LUXFränk SchleckUSATrek – Segafredo04:31:38  +  00:17:30=32,249 
58 CHEMartin ElmigerCHEIAM Cycling04:31:38  +  00:17:30=32,249 
59 FRASylvain ChavanelFRADirect Energie04:31:38  +  00:17:30=32,249 
60 NLDBert-Jan LindemanNLDTeam Lotto NL - Jumbo04:32:09  +  00:18:01=32,188 
61 AUSMichael MatthewsAUSORICA BikeExchange04:32:40  +  00:18:32=32,127 
62 NLDWilco KeldermanNLDTeam Lotto NL - Jumbo04:32:40  +  00:18:32=32,127 
63 ESPLuis León SánchezKAZAstana Pro Team04:33:42  +  00:19:34=32,006 
64 FRAArnold JeannessonFRACofidis – Solutions Crédits04:34:05  +  00:19:57=31,961 
65 NLDDylan Van BaarleUSATeam Cannondale Drapac04:34:05  +  00:19:57=31,961 
66 ERINatnael Teweldemedhin BerhaneZAFDimension Data04:34:05  +  00:19:57=31,961 
67 LUXBen GastauerFRAAg2r La Mondiale04:34:05  +  00:19:57=31,961 
68 AUTGeorg PreidlerDEUTeam Giant Alpecin04:34:05  +  00:19:57=31,961 
69 DNKMichael ValgrenRUSTinkoff04:34:05  +  00:19:57=31,961 
70 ERIDaniel TeklehaimanotZAFDimension Data04:34:05  +  00:19:57=31,961 
71 FRAJérôme CoppelCHEIAM Cycling04:34:05  +  00:19:57=31,961 
72 FRAJérôme CousinFRACofidis – Solutions Crédits04:34:05  +  00:19:57=31,961 
73 PRTNelson OliveiraESPMovistar Team04:35:23  +  00:21:15=31,810 
74 COLWinner AnaconaESPMovistar Team04:35:23  +  00:21:15=31,810 
75 ESPRubén PlazaAUSORICA BikeExchange04:35:23  +  00:21:15=31,810 
76 FRAAnthony DelaplaceFRAFortuneo - Vital Concept04:36:05  +  00:21:57=31,730 
77 CANAntoine DuchesneFRADirect Energie04:37:01  +  00:22:53=31,623 
78 FRAThomas VoecklerFRADirect Energie04:37:01  +  00:22:53=31,623 
79 CZEPetr VakocBELEtixx - Quick Step04:37:08  +  00:23:00=31,609 
80 BELJulien VermoteBELEtixx - Quick Step04:37:11  +  00:23:03=31,604 
81 DEUTony MartinBELEtixx - Quick Step04:37:11  +  00:23:03=31,604 
82 FRA Alexis GougeardFRAAg2r La Mondiale04:37:54  +  00:23:46=31,522 
83 FRAJulian AlaphilippeBELEtixx - Quick Step04:37:54  +  00:23:46=31,522 
84 FRABryan CoquardFRADirect Energie04:37:54  +  00:23:46=31,522 
85 ITAPaolo TiralongoKAZAstana Pro Team04:37:54  +  00:23:46=31,522 
86 NLDLaurens ten DamDEUTeam Giant Alpecin04:38:55  +  00:24:47=31,407 
87 DEUSimon GeschkeDEUTeam Giant Alpecin04:39:26  +  00:25:18=31,349 
88 ESPImanol ErvitiESPMovistar Team04:39:26  +  00:25:18=31,349 
89 POLBartosz HuzarskiDEUBora-Argon 1804:41:46  +  00:27:38=31,090 
90 ITACesare BenedettiDEUBora-Argon 1804:41:46  +  00:27:38=31,090 
91 NLDTom-Jelte SlagterUSATeam Cannondale Drapac04:41:46  +  00:27:38=31,090 
92 CZEJan BártaDEUBora-Argon 1804:41:46  +  00:27:38=31,090 
93 ESPLuis Angel MateFRACofidis – Solutions Crédits04:41:46  +  00:27:38=31,090 
94 CHEReto HollensteinCHEIAM Cycling04:41:46  +  00:27:38=31,090 
95 FRAPierre-Luc PérichonFRAFortuneo - Vital Concept04:41:46  +  00:27:38=31,090 
96 DEUPaul VossDEUBora-Argon 1804:41:46  +  00:27:38=31,090 
97 BELJan BakelantsFRAAg2r La Mondiale04:41:46  +  00:27:38=31,090 
98 FRASamuel DumoulinFRAAg2r La Mondiale04:41:46  +  00:27:38=31,090 
99 DEUPaul MartensNLDTeam Lotto NL - Jumbo04:41:46  +  00:27:38=31,090 
100 FRAWilliam BonnetFRAFDJ04:41:46  +  00:27:38=31,090 
101 BELOliver NaesenCHEIAM Cycling04:41:46  +  00:27:38=31,090 
102 NORSondre Holst EngerCHEIAM Cycling04:44:04  +  00:29:56=30,838 
103 NORVegard BreenFRAFortuneo - Vital Concept04:44:04  +  00:29:56=30,838 
104 ENGIan StannardGBRSky Procycling04:44:04  +  00:29:56=30,838 
105 WALLuke RoweGBRSky Procycling04:44:04  +  00:29:56=30,838 
106 FRAFlorian VachonFRAFortuneo - Vital Concept04:44:04  +  00:29:56=30,838 
107 AUSLeigh HowardCHEIAM Cycling04:45:36  +  00:31:28=30,672 
108 AUSAdam HansenBELLotto Soudal04:45:36  +  00:31:28=30,672 
109 BELSep VanmarckeNLDTeam Lotto NL - Jumbo04:45:36  +  00:31:28=30,672 
110 BELJürgen RoelandtsBELLotto Soudal04:45:36  +  00:31:28=30,672 
111 ITAFabio SabatiniBELEtixx - Quick Step04:45:36  +  00:31:28=30,672 
112 DNKChris Anker SørensenFRAFortuneo - Vital Concept04:45:36  +  00:31:28=30,672 
113 ITAOscar GattoRUSTinkoff04:45:36  +  00:31:28=30,672 
114 ITAMatteo TosattoRUSTinkoff04:45:36  +  00:31:28=30,672 
115 NLDTimo RoosenNLDTeam Lotto NL - Jumbo04:45:36  +  00:31:28=30,672 
116 SVNKristjan KorenUSATeam Cannondale Drapac04:45:36  +  00:31:28=30,672 
117 FRAGeoffrey SoupeFRACofidis – Solutions Crédits04:45:36  +  00:31:28=30,672 
118 DEURobert WagnerNLDTeam Lotto NL - Jumbo04:45:36  +  00:31:28=30,672 
119 FRAChristophe LaporteFRACofidis – Solutions Crédits04:45:36  +  00:31:28=30,672 
120 BELIljo KeisseBELEtixx - Quick Step04:45:36  +  00:31:28=30,672 
121 USABrent BookwalterUSABMC Racing Team04:45:36  +  00:31:28=30,672 
122 USATejay Van GarderenUSABMC Racing Team04:45:36  +  00:31:28=30,672 
123 AUTPatrick KonradDEUBora-Argon 1804:45:36  +  00:31:28=30,672 
124 CHEGregory RastUSATrek – Segafredo04:45:36  +  00:31:28=30,672 
125 CHEMichael AlbasiniAUSORICA BikeExchange04:45:36  +  00:31:28=30,672 
126 NLDRamon SinkeldamDEUTeam Giant Alpecin04:45:36  +  00:31:28=30,672 
127 NLDAlbert TimmerDEUTeam Giant Alpecin04:45:36  +  00:31:28=30,672 
128 ITAMatteo BonoITALampre-Merida04:45:36  +  00:31:28=30,672 
129 AUSMathew HaymanAUSORICA BikeExchange04:45:36  +  00:31:28=30,672 
130 SVNLuka PibernikITALampre-Merida04:45:36  +  00:31:28=30,672 
131 ETHTsgabu Gebremaryan GrmayITALampre-Merida04:45:36  +  00:31:28=30,672 
132 USALawson CraddockUSATeam Cannondale Drapac04:45:36  +  00:31:28=30,672 
133 DEUMarcel KittelBELEtixx - Quick Step04:45:36  +  00:31:28=30,672 
134 FRANicolas EdetFRACofidis – Solutions Crédits04:45:36  +  00:31:28=30,672 
135 BELJasper StuyvenUSATrek – Segafredo04:45:36  +  00:31:28=30,672 
136 BELSerge PauwelsZAFDimension Data04:45:36  +  00:31:28=30,672 
137 NORAlexander KristoffRUSTeam Katusha04:45:36  +  00:31:28=30,672 
138 AUSLuke DurbridgeAUSORICA BikeExchange04:45:36  +  00:31:28=30,672 
139 USAAlex HowesUSATeam Cannondale Drapac04:45:36  +  00:31:28=30,672 
140 FRAArmindo FonsecaFRAFortuneo - Vital Concept04:45:36  +  00:31:28=30,672 
141 NLDDylan GroenewegenNLDTeam Lotto NL - Jumbo04:45:36  +  00:31:28=30,672 
142 ESPMarkel IrizarUSATrek – Segafredo04:45:36  +  00:31:28=30,672 
143 FRAJérémy RoyFRAFDJ04:45:36  +  00:31:28=30,672 
144 ITADomenico PozzovivoFRAAg2r La Mondiale04:45:36  +  00:31:28=30,672 
145 UKRAndriy GrivkoKAZAstana Pro Team04:45:36  +  00:31:28=30,672 
146 DEUAndré GreipelBELLotto Soudal04:45:36  +  00:31:28=30,672 
147 FRABrice FeilluFRAFortuneo - Vital Concept04:45:36  +  00:31:28=30,672 
148 NLDRoy CurversDEUTeam Giant Alpecin04:45:36  +  00:31:28=30,672 
149 ESPAngel ViciosoRUSTeam Katusha04:45:36  +  00:31:28=30,672 
150 BELSam BennettDEUBora-Argon 1804:45:36  +  00:31:28=30,672 
151 DEUAndreas SchillingerDEUBora-Argon 1804:45:36  +  00:31:28=30,672 
152 LTURamunas NavardauskasUSATeam Cannondale Drapac04:45:36  +  00:31:28=30,672 
153 IRLChristopher Juul JensenAUSORICA BikeExchange04:45:36  +  00:31:28=30,672 
154 FRAArthur VichotFRAFDJ04:45:36  +  00:31:28=30,672 
155 FRAAnthony RouxFRAFDJ04:45:36  +  00:31:28=30,672 
156 ZAFReinardt Janse Van RensburgZAFDimension Data04:45:36  +  00:31:28=30,672 
157 BELMaarten WynantsNLDTeam Lotto NL - Jumbo04:45:36  +  00:31:28=30,672 
158 ITADavide CimolaiITALampre-Merida04:45:36  +  00:31:28=30,672 
159 AUTMarco HallerRUSTeam Katusha04:45:36  +  00:31:28=30,672 
160 FRAYohann GèneFRADirect Energie04:45:36  +  00:31:28=30,672 
161 ITAJacopo GuarnieriRUSTeam Katusha04:45:36  +  00:31:28=30,672 
162 POLMaciej BodnarRUSTinkoff04:45:36  +  00:31:28=30,672 
163 FRAAdrien PetitFRADirect Energie04:45:36  +  00:31:28=30,672 
164 NOREdvald Boasson HagenZAFDimension Data04:45:36  +  00:31:28=30,672 
165 NZLGregory HendersonBELLotto Soudal04:45:36  +  00:31:28=30,672 
166 JPNYukiya ArashiroITALampre-Merida04:45:36  +  00:31:28=30,672 
167 ENGStephen CummingsZAFDimension Data04:45:36  +  00:31:28=30,672 
168 DNKLars BakBELLotto Soudal04:45:36  +  00:31:28=30,672 
169 DEUMarcel SiebergBELLotto Soudal04:45:52  +  00:31:44=30,644 
170 AUTBernhard EiselZAFDimension Data04:45:52  +  00:31:44=30,644 
171 FRACyril LemoineFRACofidis – Solutions Crédits04:45:52  +  00:31:44=30,644 
172 SVKPeter SaganRUSTinkoff04:45:52  +  00:31:44=30,644 
173 DEUJohn DegenkolbDEUTeam Giant Alpecin04:45:52  +  00:31:44=30,644 
174 BRAMaximilano RichezeBELEtixx - Quick Step04:45:55  +  00:31:47=30,638 
175 ENGDaniel McLayFRAFortuneo - Vital Concept04:49:47  +  00:35:39=30,229 

Withdrawls: 2
 
Rider
Team
Reason
114  NLDTom DumoulinDEUTeam Giant AlpecinDid not finish
191  ESPDaniel NavarroFRACofidis – Solutions CréditsDid not finish

Todays birthdays.

1896  Georges Cuvelier
1909  Gaspard Rinaldi
1913  Erich Bautz
1913  Alexandre Pawlisiak
1916  Edmond De Lathouwer
1918  Prosper Depredomme
1929  Eluf Dalgaard
1933  Jean Graczyk
1942  Guy Seyve
1943  Henri Rabaute
1964  Jan Siemons
1966  Andrew Bishop
1975  Andrea Brognara
1984  Mikel Nieve